Location: Newark
(45.2500°N, 7.5833°E)
Time: 06:12:54
(UTC+00:00)

A-11 Canister half - Pass Details

Date: 04 February 2020
Orbit: 1524 x 1684 km, 47.3° (Epoch: 27 February)

Event Time Altitude Azimuth Distance (km) Brightness Sun altitude
Rises 20:56:02 0° 293° (WNW) 4,716 12.3 -44.5°
Reaches altitude 10° 20:59:16 10° 287° (WNW) 3,748 11.6 -45.0°
Enters shadow 21:05:47 37° 249° (WSW) 2,294 10.0 -46.1°
Maximum altitude 21:07:53 41° 222° (SW) 2,177 - -46.4°
Drops below altitude 10° 21:16:45 10° 156° (SSE) 3,850 - -47.7°
Sets 21:20:08 0° 150° (SSE) 4,855 - -48.2°
